Find Starlink 31278

NORAD ID: 59163 Int'l Des: 2024-044 Owner: SPXS Country: US Constellation: starlink operational
LEOCIRCULAR

当前视图

正在加载3D地球...

About Starlink 31278

Starlink 31278 (NORAD 59163) is a starlink constellation satellite (v2 mini) launched Mar 4, 2024 by SPXS of US. It operates in LEO, CIRCULAR orbit with a mass of 730.00 kg.

即将过境

Passes for default location (London). Set your location on the main map for personalized predictions.

高度历史

Loading altitude history...

两行轨道根数

1 59163U 24044M 26262.92470165 .00001564 00000-0 66342-4 0 9991
2 59163 43.0030 89.8900 0001353 269.7781 90.2916 15.27579596143272
Epoch: Sep 19, 2026 • Age: 17 hours

当前状态

高度 485.0 km
远地点 / 近地点 N/A
速度 7.63 km/s
星下点 33.65°N, 103.9°W
发射日期 Mar 4, 2024
运行时间 2.5 years
类型 internet

技术详情

分类 Payload
质量 730.00 kg
干质量 700.00 kg
长度 0.30 m
跨度 29.00 m
形状 ? Box + pan
制造商 SPXS
平台类型 Starlink V2M
阶段状态 In Orbit
所有者/国家 SPXS/US

Most Searched